User: anonymous   Login
Location: Julian California
(33.0790°N, 116.6010°W)
Time: 11:44:35
(UTC-07:00)
Language:

Cosmos 1515 Rocket - Orbit

View from above orbital plane
View from above orbital plane
View from above satellite
View from above satellite

Ground track
Ground track

The orbit data is extracted from the following two-line orbital elements,

1 14552U 83122B   19294.18387506  .00000072  00000-0  57882-5 0  9990
2 14552  82.5263 355.2146 0016392 212.2822 147.7392 14.83488998936082
Epoch (UTC): 21 October 2019 04:24:46
Eccentricity: 0.0016392
inclination: 82.5263°
perigee height: 607 km
apogee height: 630 km
right ascension of ascending node: 355.2146°
argument of perigee: 212.2822°
revolutions per day: 14.83488998
mean anomaly at epoch: 147.7392°
orbit number at epoch: 93608

The dashed part of the orbit path shows where the satellite is in the earth's shadow,  

DLR